Tracking 30743 objects as of 21-Jun-2025
HD Live streaming from Space Station
objects crossing your sky now

IRIDIUM 33 DEB

Track IRIDIUM 33 DEB now!
10-day predictions


NORAD ID: 34079
Int'l Code: 1997-051CN
Perigee: 638.3 km
Apogee: 643.5 km
Inclination: 86.4 °
Period: 97.4 minutes
Semi major axis: 7011 km
RCS: 0.0496 m2 (small)
Launch date: September 14, 1997
Source: United States (US)
Launch site: TYURATAM MISSILE AND SPACE COMPLEX (TTMTR)

Note: This is SATELLITE DEBRIS
Your satellite tracking list
Your tracking list is empty




NASA's NSSDC Master Catalog

Two Line Element Set (TLE):
1 34079U 97051CN  25171.27097082  .00008631  00000-0  11762-2 0  9993
2 34079  86.3778  88.0827 0003675 209.3185 309.5125 14.78592531863812
Source of the keplerian elements: AFSPC